Stations météo

réclame
Mon MeteoGroup
Leck, Allemagne (10022): Température de l'air & dewpoint: 05.08.2020 18:00:00 - 11.08.2020 18:00:00 (CEST)Leck, Allemagne (10022): Température de l'air 5cm & Température de l'air -5cm: 05.08.2020 18:00:00 - 11.08.2020 18:00:00 (CEST)Leck, Allemagne (10022): Température de l'air -20cm & Température de l'air -100cm: 05.08.2020 18:00:00 - 11.08.2020 18:00:00 (CEST)Leck, Allemagne (10022): Vitesse du vent & gusts: 05.08.2020 18:00:00 - 11.08.2020 18:00:00 (CEST)Leck, Allemagne (10022): Direction du vent: 05.08.2020 18:00:00 - 11.08.2020 18:00:00 (CEST)Leck, Allemagne (10022): reduced air pressure: 05.08.2020 18:00:00 - 11.08.2020 18:00:00 (CEST)Leck, Allemagne (10022): visibility: 05.08.2020 18:00:00 - 11.08.2020 18:00:00 (CEST)Leck, Allemagne (10022): Ensoleillement: 05.08.2020 18:00:00 - 11.08.2020 18:00:00 (CEST)Leck, Allemagne (10022): Quantités de précipitations: 05.08.2020 18:00:00 - 11.08.2020 18:00:00 (CEST)
Date & Time tt [°C] td [°C] tt 5cm [°C] tt -5cm [°C] tt -20cm [°C] tt -100cm [°C] ff [km/h] ff [knt] fx [km/h] fx [knt] dd ppp [hPa] vv [km] sd [min] rr [mm]
11.08.2020 18:00:00 - - - - - - - - - - - - - - -
11.08.2020 17:00:00 - - - - - - - - - - - - - - -
11.08.2020 16:00:00 - - - - - - - - - - - - - - -
11.08.2020 15:00:00 - - - - - - - - - - - - - - -
11.08.2020 14:00:00 - - - - - - - - - - - - - - -
11.08.2020 13:00:00 - - - - - - - - - - - - - - -
11.08.2020 12:00:00 - - - - - - - - - - - - - - -
11.08.2020 11:00:00 - - - - - - - - - - - - - - -
11.08.2020 10:00:00 - - - - - - - - - - - - - - -
11.08.2020 09:00:00 - - - - - - - - - - - - - - -
11.08.2020 08:00:00 - - - - - - - - - - - - - - -
11.08.2020 07:00:00 - - - - - - - - - - - - - - -
11.08.2020 06:00:00 - - - - - - - - - - - - - - -
11.08.2020 05:00:00 - - - - - - - - - - - - - - -
11.08.2020 04:00:00 - - - - - - - - - - - - - - -
11.08.2020 03:00:00 - - - - - - - - - - - - - - -
11.08.2020 02:00:00 - - - - - - - - - - - - - - -
11.08.2020 01:00:00 - - - - - - - - - - - - - - -
11.08.2020 00:00:00 - - - - - - - - - - - - - - -
10.08.2020 23:00:00 - - - - - - - - - - - - - - -
10.08.2020 22:00:00 - - - - - - - - - - - - - - -
10.08.2020 21:00:00 - - - - - - - - - - - - - - -
10.08.2020 20:00:00 - - - - - - - - - - - - - - -
10.08.2020 19:00:00 - - - - - - - - - - - - - - -
10.08.2020 18:00:00 - - - - - - - - - - - - - - -
10.08.2020 17:00:00 - - - - - - - - - - - - - - -
10.08.2020 16:00:00 - - - - - - - - - - - - - - -
10.08.2020 15:00:00 - - - - - - - - - - - - - - -
10.08.2020 14:00:00 - - - - - - - - - - - - - - -
10.08.2020 13:00:00 - - - - - - - - - - - - - - -
10.08.2020 12:00:00 - - - - - - - - - - - - - - -
10.08.2020 11:00:00 - - - - - - - - - - - - - - -
10.08.2020 10:00:00 - - - - - - - - - - - - - - -
10.08.2020 09:00:00 - - - - - - - - - - - - - - -
10.08.2020 08:00:00 19,7 15,4 21,7 19,9 21,9 17,0 9 5 16 8 ENE 1019,3 33 60 0,0
10.08.2020 07:00:00 17,8 14,5 16,5 18,6 22,3 17,0 9 5 14 8 ENE 1019,3 36 8 0,0
10.08.2020 06:00:00 16,6 13,7 15,0 18,6 22,7 17,0 11 6 15 8 ENE 1019,4 37 0 0,0
10.08.2020 05:00:00 16,6 13,6 14,1 19,2 23,1 16,9 6 3 9 5 E 1019,5 40 0 0,0
10.08.2020 04:00:00 17,7 13,8 13,9 19,9 23,5 16,9 5 3 10 5 ENE 1019,4 50 0 0,0
10.08.2020 03:00:00 18,1 14,1 16,0 20,5 24,0 16,9 10 5 11 6 E 1019,3 54 0 0,0
10.08.2020 02:00:00 19,1 14,0 16,5 21,2 24,5 16,9 9 5 13 7 ENE 1019,2 54 0 0,0
10.08.2020 01:00:00 20,3 13,9 16,8 21,8 25,0 16,9 9 5 12 7 NNE 1019,4 65 0 0,0
10.08.2020 00:00:00 19,3 13,6 15,4 22,8 25,6 16,9 5 3 10 5 N 1019,5 62 0 0,0
09.08.2020 23:00:00 20,7 14,0 16,6 24,3 26,1 16,8 6 3 10 5 ENE 1019,7 60 0 0,0
09.08.2020 22:00:00 21,2 14,5 17,1 26,0 26,7 16,8 5 3 8 4 ENE 1019,8 42 0 0,0
09.08.2020 21:00:00 24,8 14,1 21,1 28,7 27,1 16,8 7 4 11 6 ENE 1019,5 56 36 0,0
09.08.2020 20:00:00 27,1 13,5 26,3 31,6 27,2 16,8 9 5 17 9 NE 1019,0 52 60 0,0
09.08.2020 19:00:00 28,5 13,2 29,6 34,2 27,1 16,8 13 7 20 11 ENE 1018,9 62 60 0,0
09.08.2020 18:00:00 29,4 11,3 31,3 36,1 26,9 16,8 16 8 25 13 NE 1019,2 58 60 0,0
09.08.2020 17:00:00 29,5 10,2 32,9 37,3 26,4 16,7 18 10 26 14 ENE 1019,4 68 60 0,0
09.08.2020 16:00:00 29,4 10,0 33,7 37,9 25,7 16,7 17 9 27 15 ENE 1019,9 68 60 0,0
09.08.2020 15:00:00 29,4 11,6 34,2 37,3 24,9 16,7 19 10 25 14 ENE 1020,2 45 60 0,0
09.08.2020 14:00:00 29,0 13,5 34,8 36,3 24,1 16,7 16 9 24 13 ENE 1020,5 48 60 0,0
09.08.2020 13:00:00 28,0 13,2 34,9 34,7 23,4 16,7 14 8 20 11 ENE 1020,8 47 60 0,0
09.08.2020 12:00:00 26,8 13,9 32,9 32,1 22,8 16,6 13 7 21 11 ENE 1021,1 61 50 0,0
09.08.2020 11:00:00 26,0 14,8 30,6 28,3 22,4 16,6 10 5 16 8 NE 1021,4 54 52 0,0
09.08.2020 10:00:00 24,6 16,2 28,0 25,0 22,3 16,6 7 4 9 5 E 1021,3 64 42 0,0
09.08.2020 09:00:00 22,4 16,7 23,9 22,7 22,5 16,6 3 2 7 4 NE 1021,4 42 0 0,0
09.08.2020 08:00:00 20,8 18,0 20,3 21,7 22,7 16,6 3 1 10 5 W 1021,3 26 0 0,0
09.08.2020 07:00:00 19,3 17,6 18,6 21,3 23,0 16,6 8 5 9 5 NE 1021,0 18 0 0,0
09.08.2020 06:00:00 19,6 18,0 18,9 21,7 23,3 16,5 7 4 11 6 NE 1020,9 13 0 0,1
09.08.2020 05:00:00 20,2 17,5 19,3 22,2 23,6 16,5 5 3 6 4 NW 1020,8 30 0 0,0
09.08.2020 04:00:00 20,6 17,7 19,5 22,6 23,9 16,5 4 2 6 3 E 1020,6 26 0 0,0
09.08.2020 03:00:00 20,7 18,1 20,2 23,1 24,2 16,5 6 3 9 5 E 1020,6 25 0 0,0
09.08.2020 02:00:00 20,8 18,2 19,8 23,6 24,6 16,5 3 2 6 3 ENE 1020,8 30 0 0,0
09.08.2020 01:00:00 21,7 18,4 20,3 24,3 25,0 16,5 3 2 8 4 SW 1020,8 39 0 0,0
09.08.2020 00:00:00 21,7 18,1 21,1 25,0 25,5 16,4 5 3 9 5 SE 1020,6 38 0 0,0
08.08.2020 23:00:00 23,1 17,7 21,3 25,9 25,9 16,4 2 1 8 4 N 1021,0 53 0 0,0
08.08.2020 22:00:00 23,7 17,6 21,7 27,2 26,3 16,4 6 3 11 6 NNW 1021,1 42 0 0,0
08.08.2020 21:00:00 26,1 17,9 24,5 29,2 26,7 16,4 5 3 13 7 NNE 1020,8 45 0 0,0
08.08.2020 20:00:00 26,4 18,9 26,5 31,3 26,9 16,4 6 3 15 8 WNW 1020,6 49 6 0,0
08.08.2020 19:00:00 28,5 16,7 30,1 33,8 26,9 16,4 10 6 17 9 NNW 1020,5 44 34 0,0
08.08.2020 18:00:00 29,0 16,8 31,7 35,2 26,7 16,4 13 7 23 13 NW 1020,6 45 13 0,0
08.08.2020 17:00:00 30,6 14,6 34,5 39,3 26,1 16,3 4 2 17 9 E 1020,6 47 57 0,0
08.08.2020 16:00:00 31,3 15,9 36,2 39,5 25,2 16,3 5 3 18 10 SW 1020,6 49 60 0,0
08.08.2020 15:00:00 31,0 15,7 38,0 39,6 24,2 16,3 5 3 16 9 W 1020,7 50 60 0,0
08.08.2020 14:00:00 30,2 15,9 37,0 38,0 23,2 16,3 6 4 15 8 NE 1020,9 39 60 0,0
08.08.2020 13:00:00 28,7 16,7 36,6 35,7 22,2 16,3 9 5 16 9 ENE 1021,1 48 59 0,0
08.08.2020 12:00:00 27,7 17,9 34,4 32,9 21,4 16,3 8 4 17 9 E 1021,3 35 60 0,0
08.08.2020 11:00:00 26,0 17,7 32,3 29,5 20,8 16,2 7 4 13 7 E 1021,5 75 60 0,0
08.08.2020 10:00:00 23,9 17,2 28,4 25,8 20,5 16,2 10 5 12 7 E 1021,5 55 60 0,0
08.08.2020 09:00:00 21,8 17,2 25,9 22,4 20,5 16,2 9 5 12 7 E 1021,5 53 60 0,0
08.08.2020 08:00:00 19,0 16,1 21,8 19,2 20,7 16,2 7 4 10 5 E 1021,3 39 60 0,0
08.08.2020 07:00:00 16,6 15,0 15,8 17,7 21,0 16,2 9 5 11 6 E 1021,1 27 13 0,0
08.08.2020 06:00:00 15,3 14,0 13,8 17,7 21,4 16,2 6 3 9 5 E 1021,1 27 0 0,0
08.08.2020 05:00:00 15,6 14,0 13,7 18,3 21,8 16,2 6 3 10 5 E 1021,0 35 0 0,0
08.08.2020 04:00:00 16,5 14,3 14,8 18,9 22,3 16,1 8 4 9 5 E 1021,1 43 0 0,0
08.08.2020 03:00:00 17,1 14,4 15,3 19,6 22,8 16,1 9 5 11 6 E 1021,2 46 0 0,0
08.08.2020 02:00:00 18,2 14,8 16,2 20,5 23,3 16,1 9 5 14 8 E 1021,4 47 0 0,0
08.08.2020 01:00:00 19,0 14,7 17,3 21,3 23,8 16,1 13 7 14 7 E 1021,6 50 0 0,0
08.08.2020 00:00:00 19,5 14,3 17,1 22,3 24,4 16,1 10 5 11 6 E 1021,7 51 0 0,0
07.08.2020 23:00:00 20,4 14,3 17,9 23,6 24,9 16,1 9 5 16 8 E 1021,7 53 0 0,0
07.08.2020 22:00:00 21,9 14,7 20,1 25,5 25,5 16,1 13 7 17 9 E 1021,6 57 0 0,0
07.08.2020 21:00:00 23,9 15,1 22,1 28,1 25,8 16,1 13 7 19 11 ESE 1021,2 62 43 0,0
07.08.2020 20:00:00 26,3 14,9 26,3 30,9 26,0 16,0 16 9 26 14 ESE 1021,2 47 60 0,0
07.08.2020 19:00:00 28,0 14,6 29,3 33,8 25,8 16,0 17 9 28 15 E 1021,0 57 60 0,0
07.08.2020 18:00:00 29,3 15,1 32,0 36,5 25,4 16,0 12 6 19 10 E 1021,2 69 60 0,0
07.08.2020 17:00:00 29,9 11,6 33,8 37,4 24,7 16,0 11 6 25 13 SE 1021,5 58 60 0,0
07.08.2020 16:00:00 30,1 11,6 34,3 37,5 23,8 16,0 11 6 24 13 SSE 1021,7 55 60 0,0
07.08.2020 15:00:00 29,7 11,8 33,6 37,1 22,9 16,0 15 8 28 15 ESE 1022,1 63 60 0,0
07.08.2020 14:00:00 29,5 12,0 35,5 35,6 21,9 16,0 14 8 27 14 E 1022,2 63 60 0,0
07.08.2020 13:00:00 29,0 11,4 34,7 33,7 20,9 16,0 17 9 26 14 ESE 1022,4 52 60 0,0
07.08.2020 12:00:00 28,5 10,7 33,9 31,3 20,1 15,9 13 7 21 11 SE 1022,6 49 60 0,0
07.08.2020 11:00:00 27,1 12,0 30,9 28,3 19,5 15,9 13 7 18 10 SE 1022,7 64 60 0,0
07.08.2020 10:00:00 24,7 14,2 28,1 24,7 19,1 15,9 9 5 13 7 ESE 1022,6 49 60 0,0
07.08.2020 09:00:00 21,2 13,8 24,1 20,9 19,1 15,9 11 6 14 8 ESE 1022,5 48 60 0,0
07.08.2020 08:00:00 18,3 13,5 20,4 17,7 19,3 15,9 9 5 11 6 E 1022,4 36 60 0,0
07.08.2020 07:00:00 15,5 12,4 14,4 15,9 19,6 15,9 7 4 9 5 E 1022,1 32 14 0,0
07.08.2020 06:00:00 13,7 11,7 11,2 15,8 20,0 15,9 7 4 11 6 E 1021,9 29 0 0,0
07.08.2020 05:00:00 14,4 12,2 12,3 16,4 20,4 15,9 9 5 10 5 E 1021,8 29 0 0,0
07.08.2020 04:00:00 13,9 12,1 12,0 16,9 20,9 15,9 7 4 8 5 E 1021,8 27 0 0,0
07.08.2020 03:00:00 14,2 12,1 11,6 17,6 21,4 15,8 4 2 6 3 E 1021,8 46 0 0,0
07.08.2020 02:00:00 15,3 12,5 13,0 18,4 21,9 15,8 3 2 6 3 E 1021,8 43 0 0,0
07.08.2020 01:00:00 15,3 12,6 13,2 19,2 22,5 15,8 5 3 6 3 NW 1021,7 41 0 0,0
07.08.2020 00:00:00 16,5 12,9 13,3 20,3 23,0 15,8 3 2 8 4 NW 1021,8 60 0 0,0
06.08.2020 23:00:00 17,8 13,0 15,6 21,8 23,6 15,8 4 2 8 4 E 1021,7 49 0 0,0
06.08.2020 22:00:00 20,5 12,2 16,3 23,8 24,2 15,8 6 3 8 4 NNW 1021,4 70 0 0,0
06.08.2020 21:00:00 22,1 12,7 19,1 26,7 24,5 15,8 5 3 10 5 NW 1021,1 59 45 0,0
06.08.2020 20:00:00 24,8 12,4 25,7 29,6 24,6 15,8 7 4 9 5 NW 1020,9 75 60 0,0
06.08.2020 19:00:00 25,8 12,9 28,2 31,9 24,4 15,8 6 4 14 8 W 1020,7 67 60 0,0
06.08.2020 18:00:00 25,6 13,7 30,5 32,7 24,1 15,8 9 5 18 10 W 1020,7 32 22 0,0
06.08.2020 17:00:00 25,3 14,1 29,0 34,4 23,6 15,8 10 5 24 13 SW 1020,6 37 34 0,0
06.08.2020 16:00:00 26,5 15,0 31,8 36,4 22,7 15,8 14 8 25 13 WSW 1020,4 50 60 0,0
06.08.2020 15:00:00 28,0 11,5 33,3 36,6 21,7 15,8 13 7 24 13 SSW 1020,0 65 60 0,0
06.08.2020 14:00:00 28,0 11,5 33,4 35,1 20,6 15,8 14 7 25 13 S 1020,0 44 60 0,0
06.08.2020 13:00:00 27,0 13,1 32,3 33,5 19,6 15,8 16 9 25 14 SSW 1019,9 58 60 0,0
06.08.2020 12:00:00 26,6 14,3 31,6 30,8 18,7 15,8 11 6 19 11 S 1019,7 53 60 0,0
06.08.2020 11:00:00 24,6 13,6 28,5 28,0 17,9 15,8 13 7 16 9 S 1019,5 67 60 0,0
06.08.2020 10:00:00 23,0 12,4 25,7 24,0 17,5 15,8 12 7 19 10 SSE 1019,1 65 59 0,0
06.08.2020 09:00:00 20,2 12,9 21,4 19,2 17,4 15,8 10 5 16 8 SSE 1018,8 54 17 0,0
06.08.2020 08:00:00 17,3 14,0 17,7 16,8 17,5 15,8 8 4 13 7 E 1018,4 43 4 0,0
06.08.2020 07:00:00 16,4 13,6 15,5 15,6 17,6 15,8 10 6 16 9 ESE 1018,2 37 6 0,0
06.08.2020 06:00:00 15,6 13,4 14,4 14,8 17,9 15,8 13 7 18 10 ESE 1017,7 32 0 0,0
06.08.2020 05:00:00 13,7 12,5 12,6 14,5 18,2 15,8 10 5 13 7 E 1017,7 13 0 0,0
06.08.2020 04:00:00 13,8 12,6 12,4 14,9 18,5 15,8 9 5 12 7 E 1017,7 13 0 0,0
06.08.2020 03:00:00 14,3 13,1 12,7 15,4 18,9 15,8 10 5 13 7 E 1017,4 13 0 0,0
06.08.2020 02:00:00 14,6 13,5 13,4 15,9 19,3 15,8 9 5 14 8 E 1017,5 12 0 0,0
06.08.2020 01:00:00 14,0 13,1 12,9 16,3 19,7 15,8 9 5 13 7 ESE 1017,4 14 0 0,0
06.08.2020 00:00:00 14,4 13,6 12,8 17,1 20,2 15,8 6 3 9 5 E 1017,4 18 0 0,0
05.08.2020 23:00:00 15,0 13,4 11,8 18,4 20,7 15,8 4 2 5 3 ENE 1017,3 18 0 0,0
05.08.2020 22:00:00 17,3 14,8 13,9 20,3 21,1 15,8 4 2 14 8 SW 1017,1 27 0 0,0
05.08.2020 21:00:00 18,8 14,3 17,4 22,9 21,3 15,8 8 4 19 11 SSW 1016,5 36 47 0,0
05.08.2020 20:00:00 21,0 15,5 21,7 25,3 21,2 15,8 10 5 32 17 SW 1016,1 34 60 0,0
05.08.2020 19:00:00 21,8 14,8 23,6 27,3 20,9 15,8 16 9 31 17 WSW 1015,8 36 60 0,0
05.08.2020 18:00:00 22,1 14,5 24,9 28,4 20,5 15,8 19 10 27 15 SW 1015,7 40 22 0,0

tt = Température de l'air
td = dewpoint
tt 5cm = Température de l'air 5cm
tt -5cm = Température de l'air -5cm
tt -20cm = Température de l'air -20cm
tt -100cm = Température de l'air -100cm
ff = Vitesse du vent
fx = gusts
dd = Direction du vent
ppp = reduced air pressure
vv = visibility
sd = Ensoleillement
rr = Quantités de précipitations

stations d'obs. à proximité